Location: Newark
(25.4800°N, 85.7200°E)
Time: 22:14:26
(UTC+00:00)

Vanguard 1 Rocket - Pass Details

Date: 24 August 2019
Orbit: 651 x 4225 km, 34.3° (Epoch: 19 September)

Event Time Altitude Azimuth Distance (km) Brightness Sun altitude
Rises 21:09:47 0° 285° (WNW) 2,961 - -34.8°
Reaches altitude 10° 21:12:10 10° 296° (WNW) 2,059 - -34.4°
Maximum altitude 21:16:10 31° 1° (N) 1,265 - -33.6°
Exits shadow 21:16:44 30° 14° (NNE) 1,316 8.5 -33.5°
Drops below altitude 10° 21:21:21 10° 64° (ENE) 2,694 10.6 -32.7°
Sets 21:24:57 0° 74° (ENE) 4,074 11.8 -32.0°
